KC7WRB Weather Reports


Display with metric or nautical units.
time (UTC)temp
F
wind
direction
speed
MPH
gust
MPH
rain 1hr
in
rain 24hr
in
rain mn
in
humidity
%
barometer
mb
20260506225844 75 329 2.0 2.0 0.00 0.00 0.00 26 1020.1
20260506225341 75 128 0.0 1.0 0.00 0.00 0.00 26 1020.0
20260506224838 74 152 4.0 4.0 0.00 0.00 0.00 28 1020.0
20260506224336 74 114 4.0 4.0 0.00 0.00 0.00 24 1020.1
20260506223832 75 24 6.0 8.0 0.00 0.00 0.00 25 1020.2
20260506223327 74 70 2.0 3.0 0.00 0.00 0.00 25 1020.1
20260506222825 74 96 6.0 8.0 0.00 0.00 0.00 27 1020.1
20260506222320 74 106 11.0 11.0 0.00 0.00 0.00 28 1020.3
20260506221818 74 85 6.0 8.0 0.00 0.00 0.00 27 1020.2
20260506221316 73 80 3.0 4.0 0.00 0.00 0.00 26 1020.2
20260506220813 73 82 6.0 7.0 0.00 0.00 0.00 28 1020.7
20260506220314 73 83 4.0 7.0 0.00 0.00 0.00 26 1020.6
20260506215810 73 62 8.0 11.0 0.00 0.00 0.00 31 1020.5
20260506215307 73 89 4.0 6.0 0.00 0.00 0.00 29 1020.5
20260506214803 72 109 4.0 4.0 0.00 0.00 0.00 28 1020.6
20260506214300 73 96 7.0 8.0 0.00 0.00 0.00 27 1021.0
20260506213758 72 106 1.0 2.0 0.00 0.00 0.00 28 1020.9
20260506213254 73 81 4.0 8.0 0.00 0.00 0.00 30 1020.9
20260506212752 73 93 7.0 9.0 0.00 0.00 0.00 31 1021.0
20260506212247 73 46 2.0 3.0 0.00 0.00 0.00 29 1021.2
20260506211743 74 65 4.0 4.0 0.00 0.00 0.00 31 1020.9
20260506211239 73 346 7.0 8.0 0.00 0.00 0.00 27 1020.9
20260506210737 72 119 3.0 3.0 0.00 0.00 0.00 28 1020.9
20260506210233 72 81 1.0 2.0 0.00 0.00 0.00 30 1021.2
20260506205730 72 44 4.0 6.0 0.00 0.00 0.00 32 1021.2
20260506205226 72 296 3.0 3.0 0.00 0.00 0.00 29 1021.0
20260506204717 72 62 5.0 6.0 0.00 0.00 0.00 33 1021.2
20260506204214 72 15 3.0 4.0 0.00 0.00 0.00 32 1020.9
20260506203712 71 211 1.0 1.0 0.00 0.00 0.00 32 1021.2
20260506203210 71 298 3.0 4.0 0.00 0.00 0.00 33 1021.0
20260506202707 71 67 1.0 2.0 0.00 0.00 0.00 34 1021.4
20260506202203 70 327 6.0 9.0 0.00 0.00 0.00 35 1021.2
20260506201700 70 94 6.0 7.0 0.00 0.00 0.00 38 1021.2
20260506201156 70 102 6.0 8.0 0.00 0.00 0.00 39 1021.3
20260506200653 70 78 7.0 9.0 0.00 0.00 0.00 39 1021.4
20260506200150 70 119 6.0 9.0 0.00 0.00 0.00 38 1021.4
20260506195647 70 57 2.0 4.0 0.00 0.00 0.00 42 1021.4
20260506195143 70 104 6.0 7.0 0.00 0.00 0.00 40 1021.4
20260506194640 69 123 0.0 1.0 0.00 0.00 0.00 40 1021.3
20260506194136 70 72 2.0 3.0 0.00 0.00 0.00 38 1021.5
20260506193634 70 108 1.0 2.0 0.00 0.00 0.00 40 1021.6
20260506193131 70 126 3.0 4.0 0.00 0.00 0.00 37 1021.7
20260506192628 69 52 1.0 2.0 0.00 0.00 0.00 37 1021.8
20260506192124 69 261 4.0 4.0 0.00 0.00 0.00 38 1021.7
20260506191621 68 130 1.0 2.0 0.00 0.00 0.00 41 1022.0
20260506191117 69 223 1.0 2.0 0.00 0.00 0.00 40 1022.0
20260506190615 69 7 6.0 7.0 0.00 0.00 0.00 40 1021.8
20260506190111 69 0 9.0 10.0 0.00 0.00 0.00 44 1022.0
20260506185608 68 128 2.0 2.0 0.00 0.00 0.00 44 1022.0
20260506185104 67 268 4.0 4.0 0.00 0.00 0.00 42 1022.1
20260506184602 68 350 10.0 11.0 0.00 0.00 0.00 42 1022.0
20260506184059 68 327 6.0 8.0 0.00 0.00 0.00 42 1021.8
20260506183555 68 351 5.0 6.0 0.00 0.00 0.00 41 1022.1
20260506183051 67 257 3.0 3.0 0.00 0.00 0.00 41 1022.1
20260506182549 67 286 3.0 3.0 0.00 0.00 0.00 44 1022.2
20260506182046 67 18 4.0 4.0 0.00 0.00 0.00 43 1022.0
20260506181544 67 52 1.0 3.0 0.00 0.00 0.00 46 1022.1
20260506181041 66 98 2.0 3.0 0.00 0.00 0.00 45 1022.0
20260506180537 66 53 4.0 7.0 0.00 0.00 0.00 44 1022.1
20260506180034 66 120 3.0 4.0 0.00 0.00 0.00 44 1021.8
20260506175531 66 114 2.0 4.0 0.00 0.00 0.00 44 1022.1
20260506175027 66 103 3.0 3.0 0.00 0.00 0.00 43 1022.0
20260506174526 66 145 0.0 1.0 0.00 0.00 0.00 48 1022.1
20260506174021 66 307 0.0 0.0 0.00 0.00 0.00 40 1022.0
20260506173519 65 214 1.0 1.0 0.00 0.00 0.00 46 1022.1
20260506173016 65 235 2.0 2.0 0.00 0.00 0.00 43 1021.8
20260506172514 64 308 3.0 4.0 0.00 0.00 0.00 50 1022.1
20260506172009 63 202 1.0 1.0 0.00 0.00 0.00 56 1022.1
20260506171507 63 264 4.0 4.0 0.00 0.00 0.00 56 1021.8
20260506171004 63 232 2.0 3.0 0.00 0.00 0.00 56 1021.8
20260506170502 64 285 4.0 4.0 0.00 0.00 0.00 54 1021.7
20260506165959 62 156 0.0 0.0 0.00 0.00 0.00 54 1021.8
20260506165458 62 217 0.0 0.0 0.00 0.00 0.00 56 1021.7
20260506164953 63 256 3.0 3.0 0.00 0.00 0.00 56 1022.0
20260506164450 62 200 1.0 2.0 0.00 0.00 0.00 62 1021.8
20260506163948 62 205 1.0 2.0 0.00 0.00 0.00 56 1021.7
20260506163443 61 219 0.0 0.0 0.00 0.00 0.00 58 1021.7
20260506162938 60 180 1.0 1.0 0.00 0.00 0.00 59 1021.6
20260506162436 61 245 3.0 3.0 0.00 0.00 0.00 59 1021.6
20260506161933 61 17 1.0 2.0 0.00 0.00 0.00 58 1021.5
20260506161431 59 133 0.0 0.0 0.00 0.00 0.00 62 1021.4
20260506160928 58 250 2.0 2.0 0.00 0.00 0.00 63 1021.4
20260506160426 57 353 0.0 0.0 0.00 0.00 0.00 67 1021.5
20260506155923 57 319 3.0 3.0 0.00 0.00 0.00 64 1021.4
20260506155421 56 0 2.0 2.0 0.00 0.00 0.00 68 1021.4
20260506153542 55 289 2.0 3.0 0.00 0.00 0.00 63 1021.3
20260506153039 55 330 2.0 2.0 0.00 0.00 0.00 69 1021.0
20260506152536 55 357 2.0 2.0 0.00 0.00 0.00 68 1021.2
20260506152035 55 208 1.0 1.0 0.00 0.00 0.00 70 1021.3
20260506151532 55 128 0.0 0.0 0.00 0.00 0.00 69 1021.3
20260506151029 54 110 1.0 1.0 0.00 0.00 0.00 72 1021.2
20260506150526 53 134 0.0 0.0 0.00 0.00 0.00 76 1021.2
20260506150023 52 73 1.0 1.0 0.00 0.00 0.00 75 1021.0
20260506145519 51 81 1.0 1.0 0.00 0.00 0.00 77 1021.3
20260506145017 49 76 0.0 1.0 0.00 0.00 0.00 83 1021.3
20260506144513 48 78 1.0 2.0 0.00 0.00 0.00 86 1021.0
20260506144011 48 96 1.0 1.0 0.00 0.00 0.00 86 1021.2
20260506143508 48 83 0.0 1.0 0.00 0.00 0.00 86 1021.2
20260506143007 48 92 2.0 2.0 0.00 0.00 0.00 86 1021.0
20260506142504 48 101 2.0 2.0 0.00 0.00 0.00 86 1020.8
20260506142002 48 121 2.0 3.0 0.00 0.00 0.00 84 1020.8
20260506141459 51 133 2.0 2.0 0.00 0.00 0.00 77 1020.7
20260506140958 50 151 0.0 0.0 0.00 0.00 0.00 80 1020.6
20260506140454 49 150 0.0 0.0 0.00 0.00 0.00 85 1020.5
20260506135951 47 151 1.0 1.0 0.00 0.00 0.00 85 1020.8
20260506135449 47 152 1.0 1.0 0.00 0.00 0.00 87 1020.3
20260506134944 45 239 0.0 0.0 0.00 0.00 0.00 91 1020.7
20260506134440 44 239 0.0 0.0 0.00 0.00 0.00 92 1020.5
20260506133937 43 240 1.0 1.0 0.00 0.00 0.00 92 1020.3
20260506133435 42 256 2.0 2.0 0.00 0.00 0.00 93 1020.2
20260506132931 41 251 2.0 2.0 0.00 0.00 0.00 92 1020.1
20260506132428 41 248 2.0 2.0 0.00 0.00 0.00 92 1020.2
20260506131926 41 184 0.0 0.0 0.00 0.00 0.00 93 1020.0
20260506131422 41 182 0.0 0.0 0.00 0.00 0.00 92 1019.8
20260506130919 41 183 0.0 0.0 0.00 0.00 0.00 92 1019.7
20260506130416 41 183 0.0 0.0 0.00 0.00 0.00 91 1019.8
20260506125914 41 206 0.0 0.0 0.00 0.00 0.00 92 1019.7
20260506125412 41 238 1.0 1.0 0.00 0.00 0.00 92 1019.3
20260506124910 41 239 1.0 1.0 0.00 0.00 0.00 92 1019.3
20260506124407 41 240 2.0 2.0 0.00 0.00 0.00 92 1019.2
20260506123905 41 246 2.0 2.0 0.00 0.00 0.00 92 1019.4
20260506123402 41 266 2.0 3.0 0.00 0.00 0.00 90 1019.1
20260506122859 42 261 3.0 3.0 0.00 0.00 0.00 86 1018.9
20260506122356 44 60 1.0 1.0 0.00 0.00 0.00 85 1019.1
20260506121855 44 57 1.0 2.0 0.00 0.00 0.00 85 1019.1
20260506121351 44 53 1.0 1.0 0.00 0.00 0.00 85 1019.0
20260506120848 43 77 1.0 1.0 0.00 0.00 0.00 87 1019.0
20260506120346 43 135 1.0 1.0 0.00 0.00 0.00 88 1018.9
20260506115843 43 136 0.0 0.0 0.00 0.00 0.00 89 1018.7
20260506115341 43 137 0.0 0.0 0.00 0.00 0.00 88 1019.0
20260506114839 44 169 0.0 0.0 0.00 0.00 0.00 88 1018.9
20260506114336 43 170 0.0 0.0 0.00 0.00 0.00 89 1018.4
20260506113835 44 169 0.0 0.0 0.00 0.00 0.00 88 1018.5
20260506113332 45 169 0.0 0.0 0.00 0.00 0.00 85 1018.6
20260506112829 47 170 0.0 0.0 0.00 0.00 0.00 82 1018.4
20260506112326 46 169 2.0 2.0 0.00 0.00 0.00 85 1018.3
20260506111823 46 198 1.0 1.0 0.00 0.00 0.00 87 1018.4
20260506111321 45 199 1.0 1.0 0.00 0.00 0.00 87 1018.3
20260506110819 44 198 0.0 0.0 0.00 0.00 0.00 89 1018.2
20260506110315 44 199 1.0 1.0 0.00 0.00 0.00 88 1018.4
20260506105812 45 198 0.0 0.0 0.00 0.00 0.00 88 1018.4
20260506105309 45 200 1.0 1.0 0.00 0.00 0.00 88 1018.3
20260506104806 45 154 2.0 2.0 0.00 0.00 0.00 89 1018.0
20260506104304 44 218 1.0 1.0 0.00 0.00 0.00 89 1018.2
20260506103801 44 248 2.0 2.0 0.00 0.00 0.00 88 1018.0
20260506103259 45 243 2.0 2.0 0.00 0.00 0.00 85 1017.7
20260506102756 46 258 2.0 2.0 0.00 0.00 0.00 84 1017.8
20260506102254 47 200 1.0 2.0 0.00 0.00 0.00 82 1017.9
20260506101751 48 199 0.0 0.0 0.00 0.00 0.00 80 1017.7
20260506101247 48 199 0.0 1.0 0.00 0.00 0.00 80 1017.7
20260506100745 48 198 1.0 1.0 0.00 0.00 0.00 81 1017.7
20260506100243 47 199 1.0 1.0 0.00 0.00 0.00 82 1017.6
20260506095741 48 264 2.0 3.0 0.00 0.00 0.00 80 1017.6
20260506095238 46 233 3.0 4.0 0.00 0.00 0.00 86 1017.5
20260506094734 46 232 3.0 3.0 0.00 0.00 0.00 85 1017.5
20260506094233 47 251 3.0 3.0 0.00 0.00 0.00 82 1017.5
20260506093731 47 276 4.0 4.0 0.00 0.00 0.00 82 1017.1
20260506093228 47 253 3.0 3.0 0.00 0.00 0.00 80 1017.1
20260506092726 49 275 3.0 3.0 0.00 0.00 0.00 75 1017.0
20260506092223 49 203 3.0 3.0 0.00 0.00 0.00 75 1017.1
20260506091721 49 188 1.0 2.0 0.00 0.00 0.00 76 1016.9
20260506091218 48 199 3.0 4.0 0.00 0.00 0.00 78 1017.5
20260506090716 47 194 2.0 2.0 0.00 0.00 0.00 80 1017.0
20260506090212 47 195 0.0 0.0 0.00 0.00 0.00 80 1017.1
20260506085709 48 196 0.0 0.0 0.00 0.00 0.00 79 1017.4
20260506085205 48 187 1.0 1.0 0.00 0.00 0.00 78 1017.2
20260506084702 49 152 2.0 2.0 0.00 0.00 0.00 77 1017.1
20260506084158 48 197 1.0 1.0 0.00 0.00 0.00 78 1017.0
20260506083655 49 160 2.0 2.0 0.00 0.00 0.00 77 1017.1
20260506083153 49 184 1.0 1.0 0.00 0.00 0.00 78 1017.1
20260506082651 48 216 2.0 2.0 0.00 0.00 0.00 79 1016.9
20260506082150 49 222 1.0 1.0 0.00 0.00 0.00 78 1017.0
20260506081649 48 189 3.0 3.0 0.00 0.00 0.00 78 1017.0
20260506081146 48 199 1.0 1.0 0.00 0.00 0.00 80 1017.0
20260506080644 48 193 1.0 1.0 0.00 0.00 0.00 79 1017.1
20260506080140 50 231 2.0 2.0 0.00 0.00 0.00 77 1017.0
20260506073125 53 224 6.0 9.0 0.00 0.00 0.00 65 1016.7
20260506072620 52 235 9.0 11.0 0.00 0.00 0.00 67 1016.4
20260506072119 52 210 10.0 13.0 0.00 0.00 0.00 69 1016.3
20260506071617 52 197 6.0 8.0 0.00 0.00 0.00 70 1016.2
20260506071114 51 208 3.0 4.0 0.00 0.00 0.00 71 1016.4
20260506070611 51 189 5.0 7.0 0.00 0.00 0.00 72 1016.1
20260506070108 51 170 5.0 9.0 0.00 0.00 0.00 73 1016.4
20260506062045 51 183 3.0 4.0 0.00 0.47 0.47 73 1016.5
20260506061540 50 143 2.0 2.0 0.00 0.47 0.47 76 1016.5
20260506061038 51 152 2.0 3.0 0.00 0.47 0.47 77 1016.7
20260506060537 50 210 2.0 2.0 0.00 0.47 0.47 78 1016.4
20260506051005 55 146 10.0 11.0 0.00 0.30 0.30 65 1015.7
20260506050503 56 119 6.0 7.0 0.00 0.30 0.30 64 1015.5
20260506044953 55 165 2.0 3.0 0.00 0.30 0.30 65 1015.0
20260506044452 55 154 2.0 2.0 0.00 0.30 0.30 66 1015.2
20260506043948 55 131 2.0 2.0 0.00 0.30 0.30 64 1015.0
20260506043445 55 179 4.0 4.0 0.00 0.30 0.30 64 1014.9
20260506042943 55 213 3.0 4.0 0.00 0.30 0.30 64 1014.9
20260506042442 55 199 1.0 2.0 0.00 0.30 0.30 64 1014.7
20260506041940 54 162 0.0 1.0 0.00 0.30 0.30 67 1014.4
20260506041438 54 164 1.0 2.0 0.00 0.30 0.30 69 1014.5
20260506040935 55 138 3.0 3.0 0.00 0.30 0.30 68 1014.5
20260506040432 56 159 2.0 2.0 0.00 0.30 0.30 65 1014.5
20260506035928 56 179 1.0 2.0 0.00 0.30 0.30 63 1014.5
20260506035426 56 167 0.0 1.0 0.00 0.30 0.30 63 1014.5
20260506034922 56 167 2.0 2.0 0.00 0.30 0.30 64 1014.5
20260506034420 56 161 4.0 6.0 0.00 0.30 0.30 63 1014.6
20260506033916 57 182 1.0 2.0 0.00 0.30 0.30 63 1014.5
20260506033414 57 165 1.0 1.0 0.00 0.30 0.30 62 1014.2
20260506032911 57 190 2.0 3.0 0.00 0.30 0.30 61 1014.4
20260506032407 57 188 2.0 2.0 0.00 0.30 0.30 61 1014.2
20260506031904 57 193 1.0 2.0 0.00 0.30 0.30 61 1014.0
20260506031401 57 175 3.0 3.0 0.00 0.30 0.30 60 1013.9
20260506030859 57 170 4.0 4.0 0.00 0.30 0.30 60 1013.9
20260506030357 57 185 3.0 4.0 0.00 0.30 0.30 61 1014.1
20260506025853 57 181 0.0 1.0 0.00 0.30 0.30 62 1013.9
20260506025350 57 184 0.0 1.0 0.00 0.30 0.30 62 1014.0
20260506024847 57 196 1.0 2.0 0.00 0.30 0.30 62 1013.9
20260506024344 58 157 2.0 2.0 0.00 0.30 0.30 62 1013.5
20260506023840 58 166 2.0 2.0 0.00 0.30 0.30 60 1013.4
20260506023337 59 181 1.0 1.0 0.00 0.30 0.30 58 1013.7
20260506022834 60 189 1.0 2.0 0.00 0.30 0.30 54 1013.7
20260506022332 61 192 1.0 1.0 0.00 0.30 0.30 53 1013.7
20260506021830 61 210 3.0 4.0 0.00 0.30 0.30 51 1013.7
20260506021326 62 178 2.0 2.0 0.00 0.30 0.30 51 1013.8
20260506020823 62 162 2.0 2.0 0.00 0.30 0.30 51 1013.8
20260506020321 62 178 0.0 0.0 0.00 0.30 0.30 51 1013.5
20260506015818 62 200 1.0 1.0 0.00 0.30 0.30 51 1013.5
20260506015316 62 203 2.0 2.0 0.00 0.30 0.30 51 1013.5
20260506014812 62 192 2.0 2.0 0.00 0.30 0.30 50 1013.5
20260506014309 62 161 1.0 2.0 0.00 0.30 0.30 50 1013.5
20260506013806 62 155 3.0 4.0 0.00 0.30 0.30 47 1013.4
20260506013303 61 153 5.0 6.0 0.00 0.30 0.30 48 1013.5
20260506012759 62 149 6.0 7.0 0.00 0.30 0.30 48 1013.5
20260506012256 62 140 4.0 6.0 0.00 0.30 0.30 49 1013.5
20260506011754 62 198 4.0 4.0 0.00 0.30 0.30 49 1013.7
20260506011250 62 210 3.0 4.0 0.00 0.30 0.30 48 1013.8
20260506010748 62 165 4.0 6.0 0.00 0.30 0.30 48 1013.8
20260506010245 62 146 5.0 7.0 0.00 0.30 0.30 48 1013.7
20260506005742 62 160 6.0 7.0 0.00 0.30 0.30 47 1013.7
20260506005239 62 144 4.0 6.0 0.00 0.30 0.30 47 1013.9
20260506004735 62 143 6.0 7.0 0.00 0.30 0.30 46 1013.5
20260506004233 62 145 8.0 9.0 0.00 0.30 0.30 47 1013.5
20260506003728 62 143 4.0 4.0 0.00 0.30 0.30 47 1013.9
20260506003225 62 141 5.0 7.0 0.00 0.30 0.30 50 1013.7
20260506002721 62 138 6.0 8.0 0.00 0.30 0.30 46 1013.4
20260506002217 62 87 4.0 6.0 0.00 0.30 0.30 46 1013.9
20260506001713 62 92 5.0 6.0 0.00 0.30 0.30 48 1013.5
20260506001211 62 146 6.0 8.0 0.00 0.30 0.30 48 1013.4
20260506000708 62 132 6.0 7.0 0.00 0.30 0.30 46 1013.8
20260506000205 62 178 5.0 6.0 0.00 0.30 0.30 47 1013.5
20260505235703 63 119 7.0 8.0 0.00 0.30 0.30 46 1013.4
20260505235200 63 137 6.0 7.0 0.00 0.30 0.30 45 1013.7
20260505234657 63 138 6.0 7.0 0.00 0.30 0.30 45 1013.7
20260505234154 64 140 3.0 4.0 0.00 0.30 0.30 44 1013.8
20260505233645 64 154 2.0 2.0 0.00 0.30 0.30 47 1013.5
20260505233143 62 129 5.0 7.0 0.00 0.30 0.30 49 1013.5
20260505232641 64 137 5.0 6.0 0.00 0.30 0.30 46 1013.8
20260505232138 62 154 1.0 1.0 0.00 0.30 0.30 47 1013.9
20260505231634 61 77 2.0 2.0 0.00 0.30 0.30 50 1013.8
20260505231134 61 77 1.0 1.0 0.00 0.30 0.30 49 1013.8
20260505230631 61 112 8.0 8.0 0.00 0.30 0.30 51 1013.7